Retour au catalogue

DELTA 4 R/B

ActifMEO
NORAD 41585·ROCKET BODY·🇺🇸 United States

Lancé Jun 11, 2016 depuis Cape Canaveral Space Force Station

Loading…

Prochains Passages (prochaines 24 heures)

TLE

FraisSource: Space-Track

Époque: Sep 14, 2026, 01:33 UTC

1 41585U 16036B   26257.06521173 -.00000097  00000-0  00000-0 0  9993
2 41585   5.5761 359.1841 0230467 254.6558 102.8281  1.04079132 26655

Suivez DELTA 4 R/B en temps réel avec AllMySat

Download on the App Store